�������l�o���
Date,Time,MP-1(��Sv/h),MP-2(��Sv/h),MP-3(��Sv/h),MP-4(��Sv/h),MP-5(��Sv/h),MP-6(��Sv/h),MP-7(��Sv/h),MP-8(��Sv/h),����,����(m/s),���J
2023/08/04,00:00,0.546,0.827,0.504,1.007,0.742,0.327,0.580,0.537,��쐼,1.4,��
2023/08/04,00:10,0.548,0.828,0.504,1.006,0.743,0.328,0.577,0.537,�쐼,2.0,��
2023/08/04,00:20,0.548,0.829,0.504,1.006,0.742,0.328,0.577,0.538,��쐼,2.2,��
2023/08/04,00:30,0.547,0.827,0.506,1.007,0.743,0.327,0.579,0.536,��쐼,2.2,��
2023/08/04,00:40,0.546,0.828,0.504,1.007,0.743,0.328,0.578,0.538,��쐼,1.2,��
2023/08/04,00:50,0.547,0.828,0.505,1.010,0.740,0.329,0.579,0.536,-,CALM,��
2023/08/04,01:00,0.547,0.828,0.505,1.009,0.742,0.327,0.579,0.536,�쓌,2.0,��
2023/08/04,01:10,0.546,0.828,0.505,1.006,0.740,0.328,0.578,0.537,��쓌,3.5,��
2023/08/04,01:20,0.548,0.827,0.505,1.011,0.742,0.327,0.578,0.538,��,4.1,��
2023/08/04,01:30,0.547,0.829,0.504,1.009,0.742,0.328,0.577,0.536,��,4.1,��
2023/08/04,01:40,0.547,0.828,0.505,1.007,0.742,0.327,0.578,0.537,��,3.5,��
2023/08/04,01:50,0.547,0.827,0.507,1.010,0.743,0.328,0.576,0.539,��쐼,4.0,��
2023/08/04,02:00,0.546,0.828,0.504,1.010,0.743,0.327,0.578,0.539,��쐼,3.4,��
2023/08/04,02:10,0.548,0.828,0.504,1.007,0.744,0.327,0.577,0.536,��쐼,3.7,��
2023/08/04,02:20,0.547,0.827,0.504,1.007,0.742,0.328,0.578,0.537,��쐼,3.7,��
2023/08/04,02:30,0.547,0.828,0.505,1.007,0.741,0.328,0.577,0.538,��쐼,3.6,��
2023/08/04,02:40,0.547,0.827,0.506,1.008,0.741,0.327,0.577,0.538,�쐼,3.1,��
2023/08/04,02:50,0.548,0.826,0.504,1.008,0.741,0.328,0.577,0.537,�쐼,2.6,��
2023/08/04,03:00,0.548,0.827,0.502,1.009,0.741,0.327,0.578,0.537,�쐼,3.2,��
2023/08/04,03:10,0.547,0.824,0.504,1.007,0.742,0.327,0.578,0.537,��쐼,3.0,��
2023/08/04,03:20,0.546,0.826,0.504,1.009,0.741,0.329,0.578,0.538,��쐼,2.2,��
2023/08/04,03:30,0.548,0.828,0.503,1.008,0.744,0.328,0.578,0.537,�쐼,0.9,��
2023/08/04,03:40,0.548,0.828,0.504,1.006,0.743,0.328,0.578,0.537,���쐼,1.1,��
2023/08/04,03:50,0.547,0.827,0.505,1.010,0.742,0.328,0.578,0.536,��쐼,1.5,��
2023/08/04,04:00,0.550,0.827,0.504,1.011,0.742,0.328,0.578,0.538,��쐼,1.7,��
2023/08/04,04:10,0.548,0.828,0.506,1.009,0.741,0.326,0.577,0.536,�쐼,1.2,��
2023/08/04,04:20,0.547,0.827,0.503,1.008,0.742,0.327,0.579,0.538,-,CALM,��
2023/08/04,04:30,0.548,0.826,0.504,1.008,0.741,0.327,0.578,0.537,�k�k��,1.4,��
2023/08/04,04:40,0.546,0.828,0.505,1.007,0.742,0.327,0.578,0.537,�k,1.5,��
2023/08/04,04:50,0.547,0.828,0.504,1.009,0.740,0.327,0.578,0.538,�k,1.7,��
2023/08/04,05:00,0.547,0.827,0.504,1.008,0.742,0.326,0.577,0.537,�k,1.9,��
2023/08/04,05:10,0.548,0.830,0.504,1.008,0.742,0.327,0.578,0.538,�k�k��,1.7,��
2023/08/04,05:20,0.548,0.825,0.505,1.008,0.740,0.328,0.578,0.538,�k�k��,1.4,��
2023/08/04,05:30,0.548,0.826,0.502,1.007,0.741,0.327,0.578,0.538,�k�k��,1.5,��
2023/08/04,05:40,0.547,0.826,0.503,1.010,0.741,0.326,0.578,0.540,�k�k��,2.3,��
2023/08/04,05:50,0.548,0.829,0.503,1.009,0.741,0.327,0.578,0.536,�k��,2.0,��
2023/08/04,06:00,0.546,0.828,0.504,1.009,0.741,0.327,0.578,0.537,�k�k��,2.3,��
2023/08/04,06:10,0.547,0.827,0.504,1.009,0.739,0.327,0.579,0.539,�k�k��,1.9,��
2023/08/04,06:20,0.547,0.826,0.504,1.009,0.739,0.326,0.579,0.538,�k�k��,2.0,��
2023/08/04,06:30,0.548,0.827,0.503,1.008,0.740,0.328,0.581,0.538,�k�k��,2.0,��
2023/08/04,06:40,0.546,0.828,0.503,1.007,0.738,0.328,0.579,0.537,-,CALM,��
2023/08/04,06:50,0.546,0.826,0.504,1.007,0.740,0.327,0.580,0.537,�k�k��,1.7,��
2023/08/04,07:00,0.545,0.826,0.505,1.007,0.743,0.327,0.579,0.538,�k��,1.2,��
2023/08/04,07:10,0.547,0.825,0.505,1.007,0.738,0.327,0.579,0.537,-,CALM,��
2023/08/04,07:20,0.546,0.827,0.503,1.006,0.741,0.326,0.579,0.537,�k��,1.2,��
2023/08/04,07:30,0.547,0.827,0.505,1.008,0.739,0.326,0.580,0.537,�k��,1.7,��
2023/08/04,07:40,0.547,0.825,0.504,1.009,0.740,0.326,0.580,0.536,�k�k��,2.6,��
2023/08/04,07:50,0.549,0.827,0.504,1.007,0.739,0.327,0.579,0.537,�k�k��,1.7,��
2023/08/04,08:00,0.546,0.827,0.506,1.009,0.739,0.328,0.580,0.537,�k�k��,1.5,��
2023/08/04,08:10,0.547,0.827,0.503,1.007,0.740,0.328,0.579,0.538,�k,2.0,��
2023/08/04,08:20,0.547,0.829,0.505,1.008,0.741,0.328,0.582,0.540,�k,2.6,��
2023/08/04,08:30,0.549,0.826,0.503,1.007,0.742,0.327,0.581,0.539,�k,2.3,��
2023/08/04,08:40,0.548,0.830,0.504,1.008,0.741,0.328,0.582,0.539,�k�k��,2.5,��
2023/08/04,08:50,0.549,0.828,0.504,1.011,0.741,0.327,0.581,0.536,�k�k��,2.3,��
2023/08/04,09:00,0.548,0.827,0.502,1.008,0.741,0.327,0.583,0.536,�k��,2.3,��
2023/08/04,09:10,0.546,0.826,0.505,1.008,0.739,0.328,0.582,0.536,�k�k��,2.3,��
2023/08/04,09:20,0.548,0.826,0.505,1.009,0.743,0.327,0.581,0.537,�k�k��,2.5,��
2023/08/04,09:30,0.547,0.826,0.504,1.006,0.740,0.325,0.582,0.536,�k��,2.3,��
2023/08/04,09:40,0.547,0.830,0.505,1.006,0.741,0.327,0.579,0.537,�k��,2.0,��
2023/08/04,09:50,0.548,0.831,0.503,1.008,0.744,0.326,0.580,0.536,���k��,2.3,��
2023/08/04,10:00,0.549,0.831,0.506,1.010,0.743,0.327,0.582,0.537,���k��,2.0,��
2023/08/04,10:10,0.548,0.830,0.504,1.009,0.745,0.326,0.579,0.536,���k��,2.2,��
2023/08/04,10:20,0.548,0.830,0.506,1.009,0.746,0.325,0.579,0.537,��,2.2,��
2023/08/04,10:30,0.549,0.831,0.505,1.010,0.745,0.326,0.580,0.536,��,1.5,��
2023/08/04,10:40,0.549,0.830,0.507,1.007,0.746,0.325,0.580,0.537,���쓌,1.4,��
2023/08/04,10:50,0.549,0.831,0.508,1.007,0.744,0.326,0.580,0.538,��,2.0,��
2023/08/04,11:00,0.547,0.832,0.505,1.008,0.744,0.326,0.579,0.538,���쓌,2.3,��
2023/08/04,11:10,0.547,0.832,0.505,1.010,0.747,0.327,0.579,0.536,�쓌,2.6,��
2023/08/04,11:20,0.548,0.830,0.506,1.009,0.744,0.326,0.580,0.538,�쓌,3.1,��
2023/08/04,11:30,0.547,0.831,0.507,1.007,0.744,0.326,0.579,0.538,��쓌,3.1,��
2023/08/04,11:40,0.545,0.830,0.505,1.007,0.746,0.327,0.580,0.538,��쓌,2.6,��
2023/08/04,11:50,0.549,0.832,0.505,1.007,0.745,0.326,0.580,0.537,��쓌,3.9,��
2023/08/04,12:00,0.548,0.833,0.506,1.007,0.744,0.327,0.581,0.537,��쓌,3.3,��
2023/08/04,12:10,0.548,0.832,0.505,1.008,0.744,0.325,0.579,0.538,��쓌,3.8,��
2023/08/04,12:20,0.548,0.831,0.506,1.006,0.749,0.326,0.581,0.540,��쓌,4.1,��
2023/08/04,12:30,0.548,0.833,0.506,1.010,0.746,0.327,0.582,0.540,��쓌,3.5,��
2023/08/04,12:40,0.549,0.832,0.506,1.007,0.746,0.327,0.580,0.540,��쓌,3.6,��
2023/08/04,12:50,0.549,0.833,0.506,1.008,0.746,0.326,0.579,0.539,��쓌,4.1,��
2023/08/04,13:00,0.547,0.833,0.507,1.008,0.746,0.328,0.578,0.539,��쓌,3.4,��
2023/08/04,13:10,0.549,0.833,0.506,1.010,0.745,0.328,0.579,0.540,��쓌,3.4,��
2023/08/04,13:20,0.551,0.833,0.506,1.011,0.747,0.327,0.582,0.540,�쓌,2.3,��
2023/08/04,13:30,0.552,0.833,0.508,1.008,0.745,0.327,0.580,0.540,�쓌,2.3,��
2023/08/04,13:40,0.551,0.830,0.508,1.009,0.746,0.328,0.579,0.539,�쓌,3.9,��
2023/08/04,13:50,0.550,0.833,0.506,1.010,0.749,0.328,0.582,0.539,�쓌,3.5,��
2023/08/04,14:00,0.551,0.835,0.506,1.010,0.748,0.329,0.583,0.539,��쓌,4.1,��
2023/08/04,14:10,0.552,0.832,0.507,1.011,0.747,0.329,0.582,0.540,�쓌,3.3,��
2023/08/04,14:20,0.552,0.833,0.507,1.010,0.748,0.328,0.581,0.539,��쓌,5.5,��
2023/08/04,14:30,0.550,0.833,0.507,1.010,0.749,0.328,0.581,0.539,��쓌,5.0,��
2023/08/04,14:40,0.548,0.833,0.507,1.010,0.747,0.327,0.582,0.539,��쓌,4.3,��
2023/08/04,14:50,0.551,0.834,0.509,1.008,0.748,0.329,0.582,0.539,��쓌,3.7,��
2023/08/04,15:00,0.548,0.829,0.507,1.009,0.747,0.329,0.582,0.538,��쓌,4.9,��
2023/08/04,15:10,0.551,0.831,0.506,1.012,0.747,0.329,0.581,0.537,��쓌,6.2,��
2023/08/04,15:20,0.551,0.831,0.507,1.011,0.746,0.328,0.582,0.537,��쓌,5.8,��
2023/08/04,15:30,0.551,0.832,0.505,1.013,0.747,0.328,0.581,0.536,��쓌,4.3,��
2023/08/04,15:40,0.547,0.831,0.508,1.012,0.746,0.328,0.581,0.537,��쓌,5.0,��
2023/08/04,15:50,0.551,0.833,0.507,1.014,0.746,0.327,0.583,0.538,��,4.9,��
2023/08/04,16:00,0.550,0.833,0.508,1.014,0.748,0.328,0.582,0.536,��쓌,4.2,��
2023/08/04,16:10,0.552,0.834,0.507,1.016,0.749,0.327,0.583,0.537,��,5.2,��
2023/08/04,16:20,0.551,0.832,0.507,1.014,0.748,0.327,0.581,0.537,��쓌,5.6,��
2023/08/04,16:30,0.550,0.833,0.507,1.014,0.746,0.327,0.580,0.538,��,5.6,��
2023/08/04,16:40,0.552,0.834,0.506,1.014,0.746,0.328,0.580,0.539,��,5.1,��
2023/08/04,16:50,0.551,0.833,0.507,1.014,0.746,0.326,0.581,0.537,��쓌,6.2,��
2023/08/04,17:00,0.551,0.830,0.506,1.013,0.746,0.328,0.579,0.538,��,6.4,��
2023/08/04,17:10,0.550,0.832,0.505,1.014,0.744,0.327,0.579,0.537,��,5.6,��
2023/08/04,17:20,0.551,0.833,0.504,1.012,0.745,0.326,0.581,0.538,��,5.0,��
2023/08/04,17:30,0.550,0.831,0.506,1.013,0.747,0.328,0.579,0.538,��,5.1,��
2023/08/04,17:40,0.549,0.831,0.507,1.013,0.747,0.327,0.579,0.539,��,5.0,��
2023/08/04,17:50,0.552,0.833,0.505,1.015,0.749,0.327,0.579,0.538,��,3.8,��
2023/08/04,18:00,0.549,0.832,0.506,1.015,0.746,0.328,0.580,0.538,��쓌,5.0,��
2023/08/04,18:10,0.549,0.833,0.505,1.011,0.747,0.328,0.580,0.539,��,4.8,��
2023/08/04,18:20,0.549,0.834,0.505,1.013,0.747,0.327,0.580,0.536,��,4.4,��
2023/08/04,18:30,0.551,0.832,0.506,1.014,0.747,0.326,0.580,0.538,��,5.5,��
2023/08/04,18:40,0.550,0.833,0.506,1.013,0.746,0.327,0.579,0.537,��쓌,5.8,��
2023/08/04,18:50,0.550,0.832,0.505,1.012,0.747,0.327,0.579,0.539,��쓌,5.3,��
2023/08/04,19:00,0.549,0.833,0.507,1.013,0.746,0.327,0.580,0.538,��쓌,5.4,��
2023/08/04,19:10,0.550,0.830,0.506,1.014,0.745,0.326,0.578,0.536,��,5.4,��
2023/08/04,19:20,0.551,0.833,0.506,1.013,0.747,0.327,0.580,0.538,��,4.7,��
2023/08/04,19:30,0.550,0.835,0.505,1.013,0.746,0.327,0.579,0.536,��,3.8,��
2023/08/04,19:40,0.550,0.829,0.505,1.014,0.746,0.327,0.580,0.539,��,4.3,��
2023/08/04,19:50,0.550,0.830,0.508,1.013,0.745,0.327,0.581,0.538,��,4.4,��
2023/08/04,20:00,0.551,0.832,0.506,1.012,0.747,0.327,0.580,0.538,��쐼,3.4,��
2023/08/04,20:10,0.551,0.831,0.506,1.015,0.746,0.328,0.582,0.536,�쐼,3.0,��
2023/08/04,20:20,0.550,0.832,0.506,1.014,0.748,0.329,0.581,0.537,�쐼,3.1,��
2023/08/04,20:30,0.551,0.831,0.506,1.014,0.746,0.329,0.580,0.539,��쐼,2.9,��
2023/08/04,20:40,0.552,0.831,0.506,1.012,0.747,0.327,0.580,0.538,�쐼,3.8,��
2023/08/04,20:50,0.552,0.831,0.506,1.014,0.746,0.327,0.580,0.540,�쐼,3.5,��
2023/08/04,21:00,0.552,0.833,0.507,1.013,0.748,0.329,0.580,0.539,�쐼,2.9,��
2023/08/04,21:10,0.549,0.833,0.507,1.014,0.748,0.329,0.581,0.538,�쐼,3.1,��
2023/08/04,21:20,0.551,0.832,0.506,1.014,0.750,0.329,0.580,0.539,�쐼,3.3,��
2023/08/04,21:30,0.550,0.834,0.506,1.014,0.748,0.329,0.582,0.539,�쐼,3.7,��
2023/08/04,21:40,0.549,0.832,0.508,1.015,0.747,0.328,0.580,0.538,�쐼,3.7,��
2023/08/04,21:50,0.551,0.834,0.508,1.015,0.748,0.329,0.581,0.540,�쐼,3.5,��
2023/08/04,22:00,0.551,0.832,0.507,1.015,0.747,0.328,0.580,0.539,�쐼,3.8,��
2023/08/04,22:10,0.550,0.832,0.508,1.015,0.749,0.330,0.581,0.538,���쐼,3.4,��
2023/08/04,22:20,0.551,0.834,0.508,1.017,0.746,0.328,0.581,0.539,���쐼,3.3,��
2023/08/04,22:30,0.551,0.831,0.506,1.014,0.748,0.330,0.581,0.539,�쐼,3.4,��
2023/08/04,22:40,0.550,0.834,0.508,1.015,0.749,0.329,0.580,0.538,�쐼,3.3,��
2023/08/04,22:50,0.552,0.832,0.507,1.014,0.748,0.328,0.580,0.538,���쐼,2.2,��
2023/08/04,23:00,0.551,0.831,0.507,1.013,0.747,0.329,0.581,0.538,��,1.4,��
2023/08/04,23:10,0.550,0.833,0.507,1.016,0.748,0.328,0.580,0.538,��,1.2,��
2023/08/04,23:20,0.551,0.833,0.508,1.016,0.747,0.329,0.583,0.540,�k��,1.1,��
2023/08/04,23:30,0.551,0.832,0.509,1.016,0.748,0.331,0.581,0.540,��,0.6,��
2023/08/04,23:40,0.550,0.832,0.507,1.016,0.748,0.328,0.581,0.539,���쐼,0.9,��
2023/08/04,23:50,0.550,0.831,0.507,1.014,0.748,0.329,0.581,0.538,�쐼,0.8,��
